FW5414 Weather Reports


time (UTC)temp
F
wind
direction
speed
knots
gust
knots
rain 1hr
in
rain 24hr
in
rain mn
in
humidity
%
barometer
mb
20260507064408 61 248 0.9 4.3 0.00 0.00 0.00 86 1014.0
20260507063907 60 238 1.7 4.3 0.00 0.00 0.00 86 1014.0
20260507063405 60 183 0.0 0.9 0.00 0.00 0.00 87 1014.0
20260507062905 60 189 0.0 2.6 0.00 0.00 0.00 87 1014.0
20260507062405 60 180 1.7 4.3 0.00 0.00 0.00 87 1014.0
20260507061405 61 180 0.0 0.9 0.00 0.00 0.00 89 1015.0
20260507060905 60 180 0.0 2.6 0.00 0.00 0.00 89 1015.0
20260507060406 59 183 0.0 2.6 0.00 0.00 0.00 89 1015.0
20260507055905 59 225 0.0 1.7 0.00 0.00 0.00 89 1014.0
20260507055405 59 261 0.9 2.6 0.00 0.00 0.00 90 1014.0
20260507054905 59 248 0.0 2.6 0.00 0.00 0.00 90 1014.0
20260507054405 59 225 0.0 0.0 0.00 0.00 0.00 90 1014.0
20260507053905 59 225 0.0 0.0 0.00 0.00 0.00 91 1014.0
20260507053405 59 158 0.0 1.7 0.00 0.00 0.00 91 1014.0
20260507052905 58 270 0.0 2.6 0.00 0.00 0.00 91 1014.0
20260507051905 58 248 1.7 2.6 0.00 0.00 0.00 92 1014.0
20260507051405 58 267 0.9 2.6 0.00 0.00 0.00 92 1015.0
20260507050405 58 225 0.9 2.6 0.00 0.00 0.00 92 1015.0
20260507045906 58 223 0.9 2.6 0.00 0.00 0.00 92 1015.0
20260507045405 57 269 2.6 4.3 0.00 0.00 0.00 92 1015.0
20260507044405 58 232 1.7 4.3 0.00 0.00 0.00 94 1015.0
20260507043906 58 226 1.7 5.2 0.00 0.00 0.00 94 1015.0
20260507042905 57 243 2.6 5.2 0.00 0.00 0.00 94 1015.0
20260507041905 57 224 1.7 4.3 0.00 0.00 0.00 94 1015.0
20260507040905 57 240 1.7 2.6 0.00 0.00 0.00 95 1015.0
20260507040405 57 245 0.9 2.6 0.00 0.00 0.00 95 1015.0
20260507035405 58 225 0.0 4.3 0.00 0.00 0.00 95 1015.0
20260507034905 58 248 0.0 4.3 0.00 0.00 0.00 95 1015.0
20260507033905 58 212 0.9 2.6 0.00 0.00 0.00 95 1015.0
20260507033405 58 202 0.0 1.7 0.00 0.00 0.00 94 1015.0
20260507032905 58 201 0.9 1.7 0.00 0.00 0.00 94 1015.0
20260507032405 57 202 0.0 1.7 0.00 0.00 0.00 94 1015.0
20260507031904 57 234 0.9 4.3 0.00 0.00 0.00 94 1015.0
20260507031406 57 225 0.0 4.3 0.00 0.00 0.00 93 1015.0
20260507030904 57 243 1.7 4.3 0.00 0.00 0.00 92 1015.0
20260507030405 58 214 1.7 4.3 0.00 0.00 0.00 92 1015.0
20260507025405 58 247 0.9 5.2 0.00 0.00 0.00 92 1014.0
20260507024905 58 237 1.7 5.2 0.00 0.00 0.00 92 1014.0
20260507023405 58 247 1.7 4.3 0.00 0.00 0.00 92 1014.0
20260507022905 58 240 1.7 2.6 0.00 0.00 0.00 91 1015.0
20260507022405 58 248 1.7 2.6 0.00 0.00 0.00 91 1015.0
20260507021905 58 248 0.0 1.7 0.00 0.00 0.00 91 1015.0
20260507021405 58 260 0.9 1.7 0.00 0.00 0.00 91 1015.0
20260507020906 58 248 0.9 1.7 0.00 0.00 0.00 91 1015.0
20260507020410 58 256 1.7 2.6 0.00 0.00 0.00 91 1015.0
20260507015905 58 236 0.9 4.3 0.00 0.00 0.00 91 1015.0
20260507014907 58 286 1.7 2.6 0.00 0.00 0.00 91 1015.0
20260507014407 58 292 1.7 2.6 0.00 0.00 0.00 92 1014.0
20260507013912 58 257 0.9 2.6 0.00 0.00 0.00 92 1014.0
20260507013406 58 248 1.7 4.3 0.00 0.00 0.00 94 1014.0
20260507012408 58 191 1.7 4.3 0.00 0.00 0.00 94 1014.0
20260507011907 59 191 2.6 4.3 0.00 0.00 0.00 92 1014.0
20260507010406 59 275 1.7 4.3 0.00 0.00 0.00 88 1014.0
20260507005906 59 248 0.9 4.3 0.00 0.00 0.00 88 1015.0
20260507005406 59 282 0.9 4.3 0.00 0.00 0.00 88 1015.0
20260507004910 59 266 1.7 4.3 0.00 0.00 0.00 87 1015.0
20260507003407 59 250 1.7 5.2 0.00 0.00 0.00 87 1014.0
20260507002906 59 251 2.6 5.2 0.00 0.00 0.00 87 1014.0
20260507002407 59 244 1.7 5.2 0.00 0.00 0.00 87 1014.0
20260507001906 59 245 1.7 5.2 0.00 0.00 0.00 86 1014.0
20260507000909 60 250 3.5 6.1 0.00 0.00 0.00 84 1014.0
20260507000406 60 249 2.6 5.2 0.00 0.00 0.00 84 1014.0
20260506235907 60 269 2.6 5.2 0.00 0.00 0.00 84 1014.0
20260506235406 60 234 1.7 5.2 0.00 0.00 0.00 84 1014.0
20260506234918 60 251 2.6 5.2 0.00 0.00 0.00 84 1014.0
20260506233406 60 288 1.7 4.3 0.00 0.00 0.00 83 1014.0
20260506232906 60 248 2.6 5.2 0.00 0.00 0.00 83 1015.0
20260506231906 61 290 4.3 5.2 0.00 0.00 0.00 83 1015.0
20260506231408 61 271 2.6 6.1 0.00 0.00 0.00 82 1015.0
20260506230906 61 263 2.6 6.1 0.00 0.00 0.00 82 1015.0
20260506230406 61 290 3.5 6.1 0.00 0.00 0.00 82 1015.0
20260506224910 61 228 2.6 13.0 0.00 0.00 0.00 82 1015.0
20260506224406 61 281 2.6 13.0 0.00 0.00 0.00 83 1015.0
20260506223906 61 238 1.7 4.3 0.00 0.00 0.00 82 1015.0
20260506222906 61 270 1.7 4.3 0.00 0.00 0.00 82 1015.0
20260506222408 61 270 1.7 6.1 0.00 0.00 0.00 82 1015.0
20260506220906 61 254 1.7 4.3 0.00 0.00 0.00 83 1015.0
20260506220407 61 222 1.7 5.2 0.00 0.00 0.00 82 1015.0
20260506215906 61 281 3.5 5.2 0.00 0.00 0.00 83 1015.0
20260506214921 61 202 2.6 5.2 0.00 0.00 0.00 83 1015.0
20260506214422 61 252 2.6 6.1 0.00 0.00 0.00 82 1015.0
20260506213406 61 284 2.6 5.2 0.00 0.00 0.00 82 1015.0
20260506212406 61 223 1.7 7.8 0.00 0.00 0.00 82 1015.0
20260506210906 61 255 2.6 7.0 0.00 0.00 0.00 81 1015.0
20260506210406 61 226 1.7 6.1 0.00 0.00 0.00 81 1015.0
20260506205906 61 257 2.6 7.0 0.00 0.00 0.00 81 1015.0
20260506205406 61 258 2.6 7.0 0.00 0.00 0.00 81 1015.0
20260506204906 61 272 4.3 7.0 0.00 0.00 0.00 81 1015.0
20260506204406 61 254 2.6 5.2 0.00 0.00 0.00 82 1015.0
20260506203406 61 250 2.6 4.3 0.00 0.00 0.00 83 1015.0
20260506202907 61 229 1.7 4.3 0.00 0.00 0.00 84 1014.0
20260506201907 61 244 0.0 4.3 0.00 0.00 0.00 86 1014.0
20260506201406 61 185 2.6 4.3 0.00 0.00 0.00 87 1014.0
20260506200412 61 222 0.9 4.3 0.00 0.00 0.00 86 1014.0
20260506195906 61 239 1.7 5.2 0.00 0.00 0.00 86 1014.0
20260506195406 61 240 2.6 5.2 0.00 0.00 0.00 87 1014.0
20260506194906 61 235 2.6 7.0 0.00 0.00 0.00 88 1014.0
20260506193907 61 203 3.5 7.0 0.00 0.00 0.00 88 1014.0
20260506192907 62 180 2.6 7.0 0.00 0.00 0.00 84 1014.0
20260506192406 62 217 2.6 7.0 0.00 0.00 0.00 82 1014.0
20260506191907 62 239 5.2 8.7 0.00 0.00 0.00 81 1014.0
20260506191406 62 255 3.5 8.7 0.00 0.00 0.00 81 1014.0
20260506190906 62 263 4.3 7.8 0.00 0.00 0.00 81 1014.0
20260506190406 62 264 3.5 7.0 0.00 0.00 0.00 80 1014.0
20260506185906 62 255 2.6 7.8 0.00 0.00 0.00 80 1013.0
20260506185407 62 255 3.5 10.4 0.00 0.00 0.00 79 1013.0
20260506184906 63 275 5.2 12.2 0.00 0.00 0.00 79 1013.0
20260506184407 63 262 7.0 12.2 0.00 0.00 0.00 75 1013.0
20260506183906 64 252 4.3 7.0 0.00 0.00 0.00 73 1013.0
20260506183406 64 281 4.3 6.1 0.00 0.00 0.00 73 1013.0
20260506182912 64 274 2.6 6.1 0.00 0.00 0.00 73 1013.0
20260506182409 64 259 2.6 7.0 0.00 0.00 0.00 72 1013.0
20260506181906 64 275 3.5 7.8 0.00 0.00 0.00 72 1013.0
20260506181406 64 254 5.2 10.4 0.00 0.00 0.00 72 1012.0
20260506180907 64 281 3.5 10.4 0.00 0.00 0.00 72 1012.0
20260506180406 64 278 6.1 8.7 0.00 0.00 0.00 71 1012.0
20260506175906 64 279 4.3 11.3 0.00 0.00 0.00 71 1013.0
20260506174906 65 284 4.3 7.8 0.00 0.00 0.00 70 1013.0
20260506173906 65 251 2.6 7.8 0.00 0.00 0.00 70 1013.0
20260506173406 65 259 2.6 8.7 0.00 0.00 0.00 70 1013.0
20260506172406 65 257 4.3 8.7 0.00 0.00 0.00 70 1013.0
20260506171906 65 268 4.3 12.2 0.00 0.00 0.00 69 1013.0
20260506170406 65 280 5.2 10.4 0.00 0.00 0.00 70 1013.0
20260506165906 65 248 4.3 13.9 0.00 0.00 0.00 70 1013.0
20260506164406 65 261 8.7 13.0 0.00 0.00 0.00 70 1014.0
20260506162905 66 281 10.4 20.9 0.00 0.00 0.00 68 1013.0
20260506162408 66 280 10.4 20.9 0.00 0.00 0.00 68 1013.0
20260506161905 66 269 8.7 18.2 0.00 0.00 0.00 70 1013.0
20260506161406 66 289 10.4 18.2 0.00 0.00 0.00 70 1013.0
20260506160906 66 273 6.1 17.4 0.00 0.00 0.00 71 1013.0
20260506160407 66 309 8.7 17.4 0.00 0.00 0.00 71 1013.0
20260506155406 67 288 10.4 17.4 0.00 0.00 0.00 66 1013.0
20260506154907 67 295 8.7 14.8 0.00 0.00 0.00 65 1013.0
20260506154405 67 295 8.7 13.9 0.00 0.00 0.00 65 1013.0
20260506153906 68 292 7.8 15.6 0.00 0.00 0.00 63 1013.0
20260506153406 68 278 11.3 15.6 0.00 0.00 0.00 62 1013.0
20260506152906 68 280 7.8 15.6 0.00 0.00 0.00 61 1013.0
20260506152413 68 275 8.7 20.9 0.00 0.00 0.00 60 1013.0
20260506151909 68 276 12.2 20.9 0.00 0.00 0.00 59 1013.0
20260506151411 69 277 8.7 19.1 0.00 0.00 0.00 59 1013.0
20260506150907 69 289 8.7 18.2 0.00 0.00 0.00 59 1013.0
20260506145905 69 277 7.8 17.4 0.00 0.00 0.00 58 1013.0
20260506144921 69 276 9.6 15.6 0.00 0.00 0.00 57 1013.0
20260506144408 69 284 8.7 20.9 0.00 0.00 0.00 55 1013.0
20260506143906 69 278 12.2 21.7 0.00 0.00 0.00 55 1013.0
20260506143406 69 271 14.8 21.7 0.00 0.00 0.00 54 1013.0
20260506142906 70 280 8.7 21.7 0.00 0.00 0.00 54 1012.0
20260506142406 70 277 12.2 21.7 0.00 0.00 0.00 53 1012.0
20260506141906 70 281 8.7 20.9 0.00 0.00 0.00 52 1012.0
20260506141406 70 292 12.2 20.9 0.00 0.00 0.00 52 1012.0
20260506134906 69 280 11.3 20.9 0.00 0.00 0.00 52 1013.0
20260506133410 70 280 10.4 14.8 0.00 0.00 0.00 52 1013.0
20260506132906 69 301 7.8 17.4 0.00 0.00 0.00 53 1013.0
20260506132413 69 286 10.4 17.4 0.00 0.00 0.00 52 1013.0
20260506131906 69 293 9.6 19.1 0.00 0.00 0.00 54 1013.0
20260506131406 69 287 13.9 24.3 0.00 0.00 0.00 54 1013.0
20260506130906 69 298 13.0 24.3 0.00 0.00 0.00 55 1013.0
20260506124909 69 307 12.2 21.7 0.00 0.00 0.00 55 1013.0
20260506124405 69 281 7.8 14.8 0.00 0.00 0.00 55 1013.0
20260506123906 69 281 8.7 14.8 0.00 0.00 0.00 55 1013.0
20260506122921 69 287 8.7 14.8 0.00 0.00 0.00 55 1013.0
20260506122407 69 266 11.3 14.8 0.00 0.00 0.00 56 1013.0
20260506121906 69 277 7.0 13.9 0.00 0.00 0.00 57 1013.0
20260506121405 69 285 7.8 13.9 0.00 0.00 0.00 58 1013.0
20260506120905 69 269 6.1 13.0 0.00 0.00 0.00 58 1013.0
20260506120405 69 296 7.0 13.0 0.00 0.00 0.00 58 1013.0
20260506115905 68 296 5.2 14.8 0.00 0.00 0.00 59 1012.0
20260506115405 68 290 5.2 17.4 0.00 0.00 0.00 59 1012.0
20260506114905 68 282 10.4 17.4 0.00 0.00 0.00 58 1012.0
20260506114405 68 285 7.8 14.8 0.00 0.00 0.00 58 1012.0
20260506113906 68 278 6.1 13.9 0.00 0.00 0.00 58 1012.0
20260506113405 68 293 9.6 15.6 0.00 0.00 0.00 58 1012.0
20260506112905 68 296 8.7 15.6 0.00 0.00 0.00 58 1013.0
20260506112405 68 292 8.7 20.0 0.00 0.00 0.00 57 1013.0
20260506111406 68 297 8.7 14.8 0.00 0.00 0.00 56 1013.0
20260506110905 68 295 9.6 14.8 0.00 0.00 0.00 55 1013.0
20260506110409 68 285 7.8 13.0 0.00 0.00 0.00 55 1013.0
20260506105908 68 283 8.7 13.0 0.00 0.00 0.00 54 1013.0
20260506105405 68 288 7.8 17.4 0.00 0.00 0.00 55 1013.0
20260506104905 68 271 10.4 17.4 0.00 0.00 0.00 55 1013.0
20260506103405 68 304 11.3 15.6 0.00 0.00 0.00 55 1013.0
20260506102907 68 299 7.8 20.0 0.00 0.00 0.00 56 1013.0
20260506102406 67 279 8.7 20.0 0.00 0.00 0.00 56 1013.0
20260506101906 67 283 8.7 20.0 0.00 0.00 0.00 57 1013.0
20260506101405 67 283 7.8 13.0 0.00 0.00 0.00 57 1013.0
20260506100905 67 284 5.2 20.0 0.00 0.00 0.00 57 1013.0
20260506100405 66 290 8.7 20.0 0.00 0.00 0.00 56 1013.0
20260506095905 67 277 10.4 14.8 0.00 0.00 0.00 59 1013.0
20260506095408 66 254 3.5 7.0 0.00 0.00 0.00 64 1013.0
20260506094905 66 272 1.7 8.7 0.00 0.00 0.00 66 1013.0
20260506093905 66 257 3.5 10.4 0.00 0.00 0.00 65 1013.0
20260506093405 66 272 6.1 10.4 0.00 0.00 0.00 66 1013.0
20260506092905 66 272 2.6 8.7 0.00 0.00 0.00 68 1013.0
20260506092405 65 237 1.7 6.1 0.00 0.00 0.00 69 1013.0
20260506091905 65 279 1.7 6.1 0.00 0.00 0.00 69 1013.0
20260506091405 65 286 1.7 6.1 0.00 0.00 0.00 69 1013.0
20260506090905 65 261 1.7 4.3 0.00 0.00 0.00 69 1013.0
20260506090405 64 254 0.9 4.3 0.00 0.00 0.00 68 1013.0
20260506085905 64 244 1.7 4.3 0.00 0.00 0.00 69 1013.0
20260506085405 64 246 1.7 5.2 0.00 0.00 0.00 69 1013.0
20260506084405 64 255 2.6 6.1 0.00 0.00 0.00 69 1013.0
20260506083905 64 260 2.6 5.2 0.00 0.00 0.00 69 1013.0
20260506082405 65 257 3.5 7.8 0.00 0.00 0.00 69 1013.0
20260506081907 65 248 4.3 7.0 0.00 0.00 0.00 68 1013.0
20260506081405 65 251 2.6 7.0 0.00 0.00 0.00 69 1013.0
20260506080905 64 254 3.5 7.0 0.00 0.00 0.00 69 1013.0
20260506080406 64 265 1.7 6.1 0.00 0.00 0.00 67 1013.0
20260506073405 63 238 1.7 5.2 0.00 0.00 0.00 71 1013.0
20260506072905 63 241 1.7 7.0 0.00 0.00 0.00 72 1013.0
20260506072405 62 265 4.3 7.0 0.00 0.00 0.00 72 1013.0
20260506071905 62 265 2.6 6.1 0.00 0.00 0.00 72 1013.0
20260506071405 62 237 3.5 6.1 0.00 0.00 0.00 72 1013.0
20260506070907 62 222 2.6 6.1 0.00 0.00 0.00 74 1013.0
20260506070405 61 257 2.6 7.0 0.00 0.00 0.00 75 1013.0